Wind_Speed
18 19 20 22 23 25 26 27 27 27 27 28 28 28 28 29 29 31 32 33 35 36 37 39 40 42 43 44 46 48 49 50 50 50 52 50 48 47 45 42 40 38 37 35
17 18 20 22 23 24 25 26 26 26 26 27 27 27 28 29 30 31 32 33 34 36 37 38 39 41 42 44 45 47 48 50 51 50 50 51 51 49 47 45 42 40 39 36
16 18 20 21 22 23 24 25 25 25 25 24 25 26 26 27 28 29 31 32 33 34 34 35 36 38 39 40 42 44 46 47 48 49 50 49 50 49 48 47 45 43 41 38
15 17 18 20 20 21 22 22 22 21 22 22 22 25 23 25 26 28 28 28 28 29 29 30 30 31 33 34 36 37 39 40 42 43 45 46 46 47 46 46 46 45 44 40
13 15 16 17 17 17 18 19 19 19 19 20 19 20 21 22 24 25 25 25 25 25 25 25 25 26 27 28 28 29 30 32 33 35 37 40 41 43 43 43 43 44 44 43
11 12 13 14 15 17 17 17 17 16 16 16 17 18 19 19 20 21 22 22 22 22 22 21 21 21 20 19 20 21 21 22 24 26 30 33 36 38 40 40 41 42 42 41
9 11 12 13 14 15 16 16 16 15 15 15 16 16 16 17 17 17 18 18 17 18 17 17 17 17 15 13 13 15 16 16 17 19 22 25 29 32 34 36 37 37 37 37
10 11 12 13 14 15 15 15 14 14 15 14 14 15 15 15 15 15 16 16 16 15 14 15 15 14 13 11 10 10 10 9 10 12 14 17 21 24 27 29 31 32 33 35
10 11 12 12 14 14 14 14 14 13 13 13 14 14 14 14 14 15 16 16 15 14 14 15 15 14 14 12 11 10 8 6 6 6 8 10 13 15 18 21 24 27 30 31
10 11 12 13 13 14 14 14 14 13 13 13 13 14 14 14 14 15 15 15 15 16 16 16 16 15 15 15 14 12 10 9 7 5 4 4 7 10 13 16 19 22 25 27
12 12 13 14 15 15 15 14 15 14 14 13 13 14 14 14 14 16 16 16 16 18 18 18 17 16 16 17 16 15 14 12 11 9 6 4 2 4 7 11 14 17 20 23
13 14 14 15 16 17 16 15 15 15 15 15 14 14 14 14 14 15 16 16 17 18 19 20 20 20 20 19 19 17 16 15 13 11 10 7 5 2 2 5 8 11 14 17
14 14 15 16 17 17 17 17 16 16 16 15 15 14 14 14 15 16 17 18 18 19 20 21 21 21 21 20 20 19 18 17 16 14 12 11 9 6 4 2 2 5 9 12
15 15 16 17 17 17 18 17 16 16 17 16 16 15 15 15 16 17 17 18 18 19 19 20 21 21 21 21 21 21 20 19 18 16 15 14 12 10 8 5 3 2 4 6
15 15 16 16 17 17 18 17 16 16 16 16 16 15 15 16 16 17 17 18 18 19 20 20 21 21 21 22 22 21 21 20 20 19 18 16 15 13 11 9 7 5 3 3
14 15 15 16 17 17 17 17 16 15 15 15 15 15 15 15 16 16 17 18 18 19 19 19 20 21 21 22 22 21 21 20 20 20 19 18 17 15 13 12 11 8 7 6
13 14 14 15 16 16 16 16 15 14 14 14 14 14 14 15 15 16 17 17 18 18 18 18 19 20 20 21 21 21 21 21 21 21 20 20 19 18 16 15 13 12 10 9
11 12 13 14 14 15 14 14 14 13 13 13 13 13 13 14 15 15 16 17 17 18 18 18 18 19 20 20 21 21 21 21 21 21 21 21 20 19 18 17 16 15 13 12
8 9 11 13 13 13 13 12 12 11 11 11 11 11 12 13 13 15 16 17 17 17 17 18 18 19 19 20 20 20 20 21 21 21 21 21 20 19 19 18 18 17 16 15
6 7 8 10 11 12 12 11 11 10 10 10 10 9 10 11 12 13 14 15 16 16 16 17 17 18 19 19 19 19 20 20 21 21 21 21 20 20 19 19 19 19 19 17
5 5 6 7 9 10 11 10 10 10 9 10 9 9 8 9 10 11 12 13 14 15 15 16 16 17 18 18 19 19 19 20 20 20 20 20 20 20 20 20 20 20 20 19
6 5 4 5 6 7 9 9 10 9 9 9 9 8 7 8 8 9 11 12 12 13 14 14 15 16 16 17 18 18 18 19 20 20 20 20 21 21 21 21 21 21 21 21
8 7 6 5 5 5 6 7 8 9 9 8 8 8 8 7 8 8 9 11 11 12 12 13 13 14 15 16 16 17 18 19 19 20 21 21 21 21 21 21 21 21 22 22
10 10 9 8 7 6 6 6 7 8 8 8 8 7 8 8 8 8 9 10 11 11 11 11 12 12 13 14 15 16 17 18 19 19 20 21 21 21 21 21 21 21 22 22
13 12 11 10 9 9 8 8 7 7 7 7 7 7 7 7 8 8 8 9 10 10 11 11 11 11 12 13 13 14 15 17 18 19 20 21 21 21 21 21 21 22 22 23
17 15 14 13 12 11 10 10 9 9 8 7 7 7 7 7 7 7 7 7 8 9 10 11 11 11 11 11 12 12 13 15 16 18 19 20 21 21 21 21 22 22 22 22
Wind_Direction
270 278 283 287 290 291 292 293 293 294 293 292 291 289 288 288 287 286 285 283 282 280 279 277 274 272 269 267 265 262 260 259 258 257 256 255 253 251 249 246 247 247 247 248
275 283 288 292 294 295 295 294 294 295 294 292 290 289 288 288 288 287 287 286 285 284 283 281 278 275 273 271 269 266 263 261 260 258 257 255 253 252 251 251 251 249 248 249
284 291 295 297 297 297 297 297 297 297 296 294 293 291 292 291 291 292 291 290 289 289 288 285 282 280 278 277 274 270 267 264 262 260 258 256 254 253 252 250 250 250 250 251
294 298 301 302 303 304 304 303 302 302 301 299 298 298 298 298 298 299 299 299 299 298 296 293 289 286 283 281 278 274 269 265 263 261 259 257 256 254 253 252 251 251 251 250
303 306 309 313 315 316 316 315 312 310 308 306 306 304 307 306 306 306 307 307 307 307 307 305 302 296 290 286 281 276 271 266 262 260 257 254 254 253 253 252 251 250 251 251
314 318 321 323 325 326 326 325 323 321 318 317 315 314 316 316 314 313 313 313 313 315 316 316 315 311 304 296 287 279 275 270 264 259 255 252 250 250 250 251 250 249 250 251
332 331 332 332 334 337 338 338 337 337 335 330 326 325 326 326 326 327 327 326 325 326 327 327 328 325 321 314 303 291 286 278 270 264 257 251 248 247 248 248 248 248 249 249
350 348 347 347 349 350 349 347 346 343 339 338 336 338 339 341 342 344 348 350 350 350 350 349 349 349 345 341 334 320 309 295 280 270 262 255 248 244 244 245 244 244 245 245
7 3 1 359 356 356 355 355 354 352 349 349 351 353 354 356 359 2 4 7 11 14 16 16 16 11 7 5 360 357 355 343 329 302 273 258 250 243 240 240 240 240 241 242
22 19 16 11 8 7 7 8 11 12 8 7 7 9 10 14 17 23 24 28 30 31 29 24 23 23 25 27 27 23 19 16 15 3 334 271 251 242 240 237 237 238 239 240
37 32 27 23 22 21 22 23 23 22 19 18 19 21 25 31 34 36 39 41 41 40 38 37 36 33 34 36 35 35 36 34 32 30 26 10 305 258 243 239 238 238 238 240
44 38 33 30 29 29 29 29 27 26 25 25 28 34 36 40 42 43 45 48 48 48 46 46 45 43 43 43 40 40 38 39 38 36 37 33 26 1 280 249 242 239 239 240
47 42 37 35 35 34 33 33 34 33 31 33 38 42 44 49 51 51 52 53 52 51 50 49 48 46 46 45 42 41 41 41 39 39 38 39 39 39 33 11 267 249 244 243
48 45 41 39 38 37 37 38 40 39 41 42 45 49 52 54 56 55 55 54 53 52 51 49 48 47 46 45 44 43 43 43 43 42 42 43 42 44 44 43 29 330 272 255
47 46 42 41 40 40 40 42 43 44 46 47 49 53 55 58 58 56 54 53 53 52 50 50 49 48 47 46 45 45 45 45 45 44 43 42 42 43 44 42 36 24 4 314
46 45 42 41 40 40 41 42 43 47 49 49 51 54 56 59 57 54 53 51 51 51 50 48 47 46 46 45 44 45 45 45 44 44 44 44 45 46 46 43 37 29 20 5
44 42 41 40 39 39 40 39 42 47 50 51 51 53 55 56 54 53 49 47 48 48 46 45 44 44 44 44 44 45 46 46 46 45 45 45 46 46 45 41 35 28 20 11
40 40 39 38 36 38 37 39 43 46 50 51 50 49 50 52 51 48 45 45 46 45 44 44 43 43 43 44 44 45 45 45 45 44 44 44 44 42 40 36 32 26 19 12
29 34 36 35 34 35 34 35 38 41 44 45 46 46 47 47 45 45 43 41 42 42 42 43 44 43 43 43 43 44 44 44 43 42 42 41 40 39 37 34 31 27 21 15
9 20 27 29 29 29 29 30 31 32 37 34 38 39 40 40 41 42 41 38 39 40 40 41 42 42 41 41 42 42 42 41 40 39 38 37 37 35 34 32 29 26 22 18
335 351 7 16 21 23 23 23 23 25 24 26 28 31 33 34 34 34 34 32 33 35 35 37 37 39 40 40 40 40 39 38 37 35 34 34 33 33 31 29 27 25 21 18
298 314 331 347 358 8 13 16 18 16 17 18 20 21 22 22 22 23 24 24 26 28 29 32 35 37 37 38 38 38 37 35 34 33 32 31 31 30 29 27 25 23 20 18
280 287 295 305 320 337 350 0 5 7 8 8 9 12 14 11 11 12 13 16 18 21 23 26 29 32 34 35 35 36 35 34 33 32 30 30 29 28 27 26 24 23 21 20
269 273 278 283 289 296 310 326 340 350 357 360 360 2 5 7 5 5 6 8 11 15 18 20 22 25 27 29 31 32 32 32 31 30 29 29 28 28 27 25 25 24 23 23
263 265 268 272 274 278 285 294 305 318 332 341 347 350 353 357 360 360 3 6 8 10 13 15 17 20 22 24 26 27 27 28 28 28 28 28 28 28 27 27 26 27 27 27
260 261 262 264 267 269 272 275 280 287 297 310 321 329 335 340 348 354 356 358 1 5 9 12 14 15 17 20 22 23 22 23 25 26 27 27 27 27 27 28 28 29 30 31
Height
5909 5909 5907 5905 5903 5900 5897 5895 5891 5889 5885 5882 5880 5877 5875 5872 5870 5868 5865 5863 5860 5857 5854 5852 5849 5848 5846 5845 5844 5844 5844 5844 5844 5845 5846 5847 5849 5851 5853 5855 5857 5859 5860 5863
5907 5905 5903 5900 5898 5895 5892 5889 5886 5883 5880 5876 5873 5871 5868 5866 5863 5860 5857 5854 5851 5848 5844 5841 5838 5836 5834 5832 5831 5830 5830 5831 5831 5833 5834 5836 5838 5840 5843 5845 5848 5850 5852 5855
5903 5902 5899 5896 5893 5890 5887 5884 5880 5877 5874 5870 5867 5865 5862 5859 5855 5852 5849 5845 5842 5838 5834 5831 5827 5824 5822 5820 5818 5817 5817 5818 5818 5820 5822 5824 5827 5829 5832 5835 5838 5841 5844 5846
5900 5897 5895 5892 5889 5885 5882 5878 5875 5872 5869 5865 5863 5859 5856 5852 5848 5844 5841 5837 5833 5829 5825 5821 5818 5815 5812 5809 5807 5805 5804 5805 5806 5808 5810 5813 5815 5818 5821 5825 5828 5831 5834 5838
5897 5894 5891 5888 5885 5881 5878 5874 5870 5867 5864 5861 5858 5855 5852 5847 5843 5839 5835 5831 5827 5822 5818 5814 5810 5806 5803 5800 5797 5795 5794 5794 5795 5797 5799 5801 5804 5808 5811 5814 5817 5821 5824 5828
5894 5891 5888 5885 5881 5878 5874 5870 5867 5863 5860 5858 5854 5851 5847 5843 5839 5835 5830 5826 5821 5817 5813 5809 5805 5800 5796 5793 5790 5788 5787 5786 5787 5788 5789 5791 5794 5798 5801 5804 5807 5811 5814 5818
5892 5889 5886 5883 5879 5876 5872 5868 5865 5861 5858 5855 5851 5847 5845 5840 5836 5831 5827 5822 5818 5813 5809 5805 5801 5796 5792 5789 5786 5784 5783 5782 5781 5781 5782 5783 5786 5788 5792 5795 5798 5802 5805 5809
5890 5887 5884 5880 5877 5874 5870 5867 5865 5861 5857 5853 5849 5845 5842 5837 5833 5829 5824 5820 5815 5811 5807 5803 5799 5795 5791 5787 5784 5782 5780 5778 5777 5777 5777 5778 5779 5781 5783 5787 5790 5793 5797 5800
5889 5886 5883 5879 5876 5873 5869 5865 5862 5859 5855 5852 5848 5844 5840 5836 5832 5827 5823 5819 5815 5811 5807 5803 5799 5795 5791 5788 5784 5782 5780 5777 5776 5775 5774 5774 5775 5776 5778 5780 5783 5786 5789 5792
5888 5886 5883 5879 5876 5873 5869 5865 5862 5858 5855 5851 5848 5844 5840 5835 5831 5827 5823 5820 5816 5812 5809 5805 5801 5797 5793 5790 5786 5783 5780 5778 5776 5775 5773 5772 5773 5773 5774 5776 5778 5780 5783 5785
5888 5886 5884 5880 5876 5872 5869 5865 5862 5859 5855 5852 5848 5847 5841 5837 5833 5829 5826 5822 5818 5815 5811 5808 5804 5800 5796 5792 5789 5785 5782 5780 5778 5776 5774 5773 5772 5772 5772 5773 5774 5776 5778 5780
5889 5887 5884 5880 5877 5873 5869 5866 5863 5860 5856 5853 5850 5849 5843 5839 5835 5832 5828 5825 5822 5818 5815 5811 5807 5803 5799 5796 5792 5788 5785 5783 5780 5778 5776 5774 5773 5772 5772 5772 5772 5773 5774 5775
5890 5888 5885 5882 5880 5875 5871 5867 5864 5861 5858 5855 5852 5851 5845 5841 5838 5835 5832 5828 5825 5822 5819 5815 5811 5807 5804 5800 5796 5792 5789 5786 5783 5781 5778 5776 5774 5773 5772 5772 5771 5771 5772 5772
5891 5889 5887 5884 5880 5876 5873 5869 5866 5863 5860 5857 5854 5851 5848 5845 5841 5838 5835 5832 5829 5826 5822 5819 5815 5812 5808 5804 5800 5796 5793 5790 5787 5784 5781 5778 5776 5775 5773 5773 5772 5771 5771 5771
5892 5890 5887 5884 5881 5878 5875 5872 5868 5865 5863 5860 5857 5854 5851 5848 5845 5842 5839 5836 5833 5830 5826 5823 5820 5816 5812 5808 5805 5801 5797 5794 5791 5787 5784 5782 5779 5777 5775 5774 5773 5771 5770 5769
5894 5892 5889 5886 5883 5880 5877 5874 5871 5868 5865 5863 5860 5858 5854 5851 5848 5846 5843 5840 5837 5833 5830 5827 5823 5820 5816 5812 5809 5805 5802 5798 5795 5791 5788 5785 5782 5780 5778 5776 5774 5772 5770 5769
5895 5893 5891 5888 5885 5883 5880 5877 5874 5871 5868 5866 5863 5861 5858 5855 5852 5849 5846 5843 5840 5837 5834 5830 5827 5823 5820 5816 5813 5809 5806 5802 5799 5795 5792 5788 5785 5783 5780 5778 5775 5773 5771 5768
5896 5894 5892 5890 5888 5885 5884 5879 5876 5874 5871 5868 5866 5863 5861 5858 5855 5852 5849 5846 5843 5840 5837 5834 5830 5827 5824 5820 5817 5813 5810 5806 5803 5799 5795 5792 5789 5786 5783 5780 5777 5774 5771 5768
5897 5895 5893 5891 5889 5887 5884 5881 5878 5876 5874 5871 5868 5866 5863 5861 5858 5855 5852 5849 5846 5843 5840 5837 5834 5831 5827 5824 5820 5817 5814 5810 5806 5803 5799 5796 5792 5789 5785 5782 5778 5775 5771 5768
5897 5895 5894 5892 5890 5888 5887 5883 5880 5879 5876 5873 5871 5868 5866 5863 5861 5859 5855 5852 5849 5846 5843 5840 5837 5834 5831 5827 5824 5821 5817 5814 5810 5806 5803 5799 5795 5792 5788 5784 5780 5776 5772 5768
5896 5895 5894 5892 5890 5889 5887 5884 5882 5881 5879 5875 5872 5870 5868 5865 5864 5861 5858 5855 5852 5849 5846 5843 5840 5837 5834 5830 5827 5824 5821 5817 5813 5810 5806 5802 5798 5794 5791 5787 5783 5778 5774 5769
5895 5894 5893 5891 5891 5891 5887 5884 5883 5882 5878 5876 5873 5871 5869 5867 5864 5862 5859 5857 5854 5851 5848 5845 5843 5839 5836 5833 5830 5827 5824 5820 5816 5813 5809 5805 5801 5797 5793 5789 5785 5780 5776 5771
5893 5893 5891 5891 5891 5889 5886 5885 5883 5881 5879 5876 5874 5872 5870 5868 5865 5863 5861 5858 5855 5853 5850 5847 5845 5842 5839 5836 5833 5830 5826 5823 5819 5816 5812 5808 5804 5800 5796 5792 5787 5783 5778 5773
5890 5889 5889 5888 5887 5886 5885 5884 5882 5881 5879 5877 5875 5873 5870 5868 5866 5864 5861 5859 5856 5854 5851 5849 5846 5843 5841 5838 5835 5832 5829 5826 5822 5819 5815 5811 5807 5803 5798 5794 5790 5785 5780 5775
5886 5885 5885 5885 5885 5884 5883 5882 5881 5879 5878 5876 5874 5872 5870 5868 5866 5864 5862 5859 5857 5855 5852 5850 5847 5845 5842 5839 5837 5834 5831 5828 5825 5821 5817 5813 5809 5805 5801 5797 5792 5788 5783 5778
5881 5881 5881 5881 5881 5880 5880 5879 5878 5877 5876 5875 5873 5872 5870 5868 5866 5864 5862 5860 5858 5855 5853 5851 5848 5846 5843 5841 5838 5836 5833 5830 5827 5824 5820 5816 5812 5808 5804 5800 5796 5791 5787 5782